Regional Weather Roundup
Issued by NWS

Home | Current Version | Previous Version | Graphics & Text | Print | Product List | Glossary On
Versions: 1 2 3 4 5 6 7 8 9 10 11 12 13 14 15 16 17 18 19 20 21 22 23 24 25 26 27 28 29 30 31 32 33 34 35 36 37 38 39 40 41 42 43 44 45 46 47 48 49 50
000
ASUS45 KABQ 091801
RWRNM
NEW MEXICO REGIONAL WEATHER ROUNDUP
NATIONAL WEATHER SERVICE ALBUQUERQUE NM
1100 AM MST TUE FEB 09 2016

NOTE: "FAIR" MEANS FEW OR NO CLOUDS BELOW 12,000 FEET AGL WITH NO
       SIGNIFICANT WEATHER OR OBSTRUCTIONS TO VISION.

      THIS PRODUCT IS RELEASED AS TWO VERSIONS.  ONE VERSION NEAR
      THE TOP OF THE HOUR CONTAINING PRELIMINARY DATA FROM ALBUQUERQUE
      AND OTHER STATIONS.  A FINAL VERSION WITH ADDITIONAL DATA IS
      ISSUED ABOUT 10 MINUTES AFTER THE HOUR.

NMZ501-503-504-510>518-091900-
NORTHWEST PLATEAU/NORTHCENTRAL MOUNTAINS

CITY           SKY/WX    TMP DP  RH WIND       PRES   REMARKS
FARMINGTON     SUNNY     39  25  57 SE5       30.45F
6HR MIN TEMP:  19; 6HR MAX TEMP:  39;

SANTA FE       SUNNY     46  20  35 N12       30.42F
6HR MIN TEMP:  27; 6HR MAX TEMP:  46;

TAOS           SUNNY     39  19  45 CALM      30.46S

$$
NMZ402-403-502-505>509-091900-
WESTCENTRAL MOUNTAINS/SOUTHWEST MOUNTAINS

CITY           SKY/WX    TMP DP  RH WIND       PRES   REMARKS
GALLUP         SUNNY     43  21  41 VRB3      30.47S
6HR MIN TEMP:  14; 6HR MAX TEMP:  43;

SILVER CITY      N/A     55  19  24 SE3       30.43S

$$
NMZ407-409-411-412-091900-
SOUTHERN DESERTS

CITY           SKY/WX    TMP DP  RH WIND       PRES   REMARKS
DEMING         SUNNY     57  18  21 E9        30.41S
6HR MIN TEMP:  25; 6HR MAX TEMP:  57;

HOLLOMAN AFB   SUNNY     54  16  22 VRB3      30.41F
ALAMOGORDO     SUNNY     54  16  22 SW6       30.42F
T OR C         SUNNY     54  20  26 N5        30.41F
6HR MIN TEMP:  31; 6HR MAX TEMP:  54;


$$
NMZ519>523-091900-
CENTRAL VALLEYS/CENTRAL HIGHLANDS

CITY           SKY/WX    TMP DP  RH WIND       PRES   REMARKS
ALBUQUERQUE    SUNNY     49  21  33 N9        30.44S
6HR MIN TEMP:  29; 6HR MAX TEMP:  49;

DOUBLE EAGLE   SUNNY     48  23  37 CALM      30.45R
MORIARTY ARPT  FAIR      51  21  30 N6        30.43S
6HR MIN TEMP:  14; 6HR MAX TEMP:  51;

CLINES CORNERS SUNNY     46  24  42 NW13      30.40S
6HR MIN TEMP:  27; 6HR MAX TEMP:  46;

BELEN          FAIR      49  21  33 N5        30.44S
6HR MIN TEMP:  24; 6HR MAX TEMP:  49;

SOCORRO        NOT AVBL

$$
NMZ524>526-539-540-091900-
SOUTHCENTRAL MOUNTAINS

CITY           SKY/WX    TMP DP  RH WIND       PRES   REMARKS
RUIDOSO          N/A     55  16  21 NW8       30.43S

$$
NMZ527>531-091900-
NORTHEAST HIGHLANDS/NORTHEAST PLAINS

CITY           SKY/WX    TMP DP  RH WIND       PRES   REMARKS
LAS VEGAS      SUNNY     47  19  33 E5        30.40F
6HR MIN TEMP:  22; 6HR MAX TEMP:  47;

RATON          SUNNY     44  20  38 CALM      30.38F
6HR MIN TEMP:  16; 6HR MAX TEMP:  45;

CLAYTON        SUNNY     54  20  26 SW5       30.35F
6HR MIN TEMP:  31; 6HR MAX TEMP:  54;


$$
NMZ532>537-091900-
EASTCENTRAL PLAINS

CITY           SKY/WX    TMP DP  RH WIND       PRES   REMARKS
TUCUMCARI      SUNNY     51  18  27 W5        30.40F
6HR MIN TEMP:  18; 6HR MAX TEMP:  51;

CANNON AFB     SUNNY     53  15  21 SW10G20   30.39F
6HR MIN TEMP:  25; 6HR MAX TEMP:  53;

CLOVIS AIRPORT SUNNY     54  19  26 SW10G16   30.41F

$$
NMZ028-029-538-091900-
SOUTHEAST PLAINS

CITY           SKY/WX    TMP DP  RH WIND       PRES   REMARKS
ROSWELL        SUNNY     48  18  30 VRB5      30.41F
6HR MIN TEMP:  24; 6HR MAX TEMP:  48;

ARTESIA        SUNNY     46  18  31 SE7       30.42F
CARLSBAD       SUNNY     50  19  29 E6        30.41F
6HR MIN TEMP:  23; 6HR MAX TEMP:  51;

HOBBS          SUNNY     55  16  21 S8        30.43S


$$



USA.gov is the U.S. government's official web portal to all federal, state and local government web resources and services.